Terminal Aerodrome Forecast
Issued by NWS El Paso, TX

Home | Current Version | Previous Version | Text Only | Print | Product List | Glossary On
Versions: 1 2 3 4 5 6 7 8 9 10 11 12 13 14 15 16 17 18
180
FTUS44 KEPZ 100523
TAFELP
TAF
KELP 100523Z 1006/1106 12005KT P6SM FEW026 SCT250
     FM100800 03004KT P6SM FEW030 SCT250
     FM102100 22010KT P6SM SCT250
     FM110100 VRB05KT P6SM SCT250=

USA.gov is the U.S. government's official web portal to all federal, state and local government web resources and services.